COSMOS 2476 (744) (37867 NORAD) Tracking and Keplerian Element Data

This shows tracking and keplerian element data for the satellite.

Feedback or suggestion? Click here.




ElementValue
Catalog37867
NameCOSMOS 2476 (744)
Epoch Orbit5220
Epoch Day198.90878789
Epoch Year2018
RAAN170.8428
Inclination64.4923
Eccentricity0.0020561
Argument of Perigee245.5552
Mean Anonmoly150.8787
Mean Motion2.1310202
Decay Rate6.5E-07
L11 37867U 11064A 18198.90878789 .00000065 00000-0 00000-0 0 9997
L22 37867 64.4923 170.8428 0020561 245.5552 150.8787 2.13102020 52209

Live tracking and technical data element details for COSMOS 2476 (744) (NORAD 37867). COSMOS 2476 (744) can be tracked NOW for your location showing map with azimuth and elevation plus other details from your city location.

Track the satellite on the map from your city or location and see movement details for azimuth, elevation, latitude, longitude, range, height, and movement on the map or in text.







IsCatalogInMostPopularTable: catalog: 37867, numindb: 38
Update: records affected: 1



GetName: 37867 COSMOS 2476 (744)

Hit Count: updated at: Fri, 20 Jul 2018 20:37:38 GMT